Location: Unspecified
(45.9739°N, 0.0000°E)
Time: 04:36:12
(UTC+00:00)

HAI YANG 1B - Visible Passes

Search period start: 04 April 2026 00:00
Search period end: 14 April 2026 00:00
Orbit: 778 x 799 km, 98.3° (Epoch: 28 March)

Date Brightness Start Highest point End Pass type
(mag) Time Alt. Az. Time Alt. Az. Time Alt. Az.
4 Apr 7.6 04:35:28 10° NNE 04:40:37 62° E 04:45:45 10° S visible
5 Apr 8.8 04:05:45 10° NNE 04:10:27 34° E 04:15:07 10° SSE visible
6 Apr 9.7 03:36:31 10° NE 03:40:09 19° E 03:43:45 10° SE visible
7 Apr 7.3 04:44:49 10° NNE 04:50:01 75° ESE 04:55:13 10° S visible
8 Apr 8.4 04:15:00 10° NNE 04:19:54 41° E 04:24:47 10° SSE visible
9 Apr 9.4 03:45:33 10° NE 03:49:38 23° E 03:53:42 10° SE visible
10 Apr 9.9 03:17:08 10° ENE 03:19:14 12° E 03:21:18 10° ESE visible
11 Apr 8.1 04:24:17 10° NNE 04:29:20 50° E 04:34:23 10° S visible
12 Apr 9.1 03:54:41 10° NE 03:59:06 28° E 04:03:31 10° SSE visible
13 Apr 9.8 03:25:46 10° NE 03:28:45 15° E 03:31:44 10° SE visible
